GFSSGP_850_temp_198.txt.gz
Temp
23 23 23 24 25 25 22 22 25 28 24 30 30 29 26 23 22 23 22 23 20 18 20 19 19 19 19 19 19 19 19 19 19 19 19 18 18 18 18 19 18 18 18 18 18 18 18 18 18
21 23 25 26 25 22 21 19 26 26 24 29 29 27 27 26 25 23 22 21 20 19 18 19 19 19 19 19 19 19 19 19 19 19 18 19 19 18 19 19 18 18 18 17 17 18 18 18 18
23 24 25 26 25 25 22 19 24 29 30 29 30 28 26 25 24 22 21 20 20 20 19 20 19 19 19 19 19 19 19 19 19 19 19 19 18 18 18 18 18 18 18 18 17 18 18 18 18
25 25 27 26 27 26 23 21 23 30 29 30 28 26 26 25 24 21 21 20 20 19 19 20 19 18 18 19 19 20 20 19 19 19 19 19 18 18 18 18 18 18 18 18 18 18 18 18 18
26 25 24 26 27 26 26 26 28 28 28 30 27 23 25 25 23 22 21 21 20 19 20 20 19 19 19 18 19 20 19 19 19 19 19 19 19 19 18 19 19 19 19 18 18 18 17 18 18
27 28 24 25 25 28 28 29 29 28 25 29 28 26 25 25 23 23 22 22 21 20 20 20 19 18 18 18 19 19 19 19 19 19 19 19 19 19 19 19 19 19 19 18 18 17 18 18 18
29 29 25 23 25 26 27 28 29 26 24 24 28 26 25 24 23 23 22 22 22 20 20 21 19 19 18 18 19 19 19 19 19 18 19 19 19 19 19 19 19 19 18 18 18 18 18 18 18
29 29 23 22 26 27 28 29 28 25 20 23 27 25 26 23 23 22 23 22 20 20 19 19 20 19 19 19 19 19 19 19 19 19 19 19 19 19 19 19 19 18 19 19 18 18 18 18 18
30 23 23 21 27 26 27 27 27 25 23 23 28 27 26 24 23 22 23 22 21 20 19 18 20 18 17 18 19 18 18 18 19 19 19 19 19 19 19 19 18 19 19 19 19 18 18 18 17
30 27 23 27 29 26 27 26 24 27 27 27 28 26 25 25 24 22 22 22 22 20 20 19 19 18 18 18 18 18 18 18 19 19 19 19 18 18 18 19 20 20 19 19 19 18 18 17 17
30 27 30 29 27 27 28 27 26 28 24 23 22 26 25 25 25 25 23 23 22 20 20 19 18 19 19 19 18 18 18 17 18 19 19 18 19 20 20 19 20 19 19 19 19 18 18 18 19
29 29 30 29 27 27 26 25 26 23 20 23 22 23 25 25 24 23 22 22 21 20 20 20 20 19 18 19 18 18 18 17 18 19 19 19 19 20 19 19 19 19 19 18 19 18 18 18 16
30 30 31 28 27 27 26 26 27 24 23 24 25 26 26 25 24 23 22 22 21 20 20 20 19 19 18 19 18 18 17 18 18 19 19 19 19 20 20 19 19 19 19 19 19 18 18 19 18
30 31 31 30 29 28 28 26 26 25 25 23 27 27 26 25 24 23 22 21 21 21 20 20 19 19 19 18 18 18 18 18 18 20 19 19 19 19 20 19 19 19 20 19 19 18 18 19 18
30 30 32 28 29 28 28 25 26 23 24 27 27 27 27 24 24 23 22 22 21 21 20 19 18 18 18 18 18 18 18 19 19 19 19 20 19 19 19 19 19 20 20 20 20 19 18 18 19
31 31 26 27 30 29 28 25 26 25 25 27 28 28 27 24 24 23 22 22 20 21 19 20 18 19 18 18 18 18 18 19 20 19 20 21 20 19 19 18 18 19 19 19 20 20 18 19 18
31 27 28 28 30 29 28 23 20 25 26 27 27 28 27 26 25 23 22 22 21 21 19 20 19 18 18 18 18 18 19 20 20 20 20 20 20 19 18 18 19 19 19 21 19 19 19 19 19
29 29 31 29 29 29 29 25 21 24 27 27 28 28 27 26 26 24 23 23 21 21 20 20 19 18 18 18 17 18 19 19 20 20 20 20 19 19 19 19 19 20 20 20 19 20 20 19 20
31 31 31 30 31 30 30 29 26 24 27 27 27 28 28 27 26 25 24 23 22 21 20 20 19 18 18 18 18 18 19 20 20 20 20 20 19 19 19 19 19 20 20 20 20 20 19 20 20
31 31 30 29 31 30 29 30 26 27 28 28 28 29 29 28 26 25 25 23 22 21 20 20 19 19 18 18 18 19 19 20 20 20 20 20 20 20 19 20 20 20 20 20 20 19 20 19 20
31 31 30 27 30 25 26 23 20 23 22 29 29 28 29 28 26 25 25 24 23 21 21 20 20 19 18 19 18 19 19 19 20 20 20 20 20 20 20 19 20 20 19 20 19 19 20 20 21
31 33 32 31 31 26 23 23 21 21 20 24 30 29 29 28 27 26 26 25 24 23 21 20 20 19 19 18 19 19 19 19 20 20 20 20 20 20 20 20 20 20 20 19 19 19 19 20 18
31 33 32 32 31 28 26 24 25 22 20 19 24 30 30 29 28 26 26 25 25 24 22 21 20 20 19 18 19 19 19 19 19 20 19 20 20 20 19 19 20 19 19 19 20 19 19 20 19
32 32 32 31 25 27 27 28 28 26 21 19 22 29 30 30 28 27 26 26 24 24 23 22 21 20 19 19 18 18 19 19 20 20 19 19 20 20 20 20 19 20 19 19 19 19 19 20 20
32 31 27 27 22 20 27 26 30 32 30 32 32 32 31 30 29 28 27 25 24 24 24 22 21 20 20 19 19 19 19 19 19 19 19 20 20 20 20 20 19 19 19 19 19 19 19 20 20
32 32 28 27 24 26 29 23 30 33 33 31 31 31 31 30 29 28 27 26 24 24 23 23 22 20 20 19 18 19 19 18 19 19 20 20 20 20 20 20 19 20 19 20 19 19 19 19 19
31 31 34 32 33 32 30 28 32 33 33 32 31 30 30 30 29 28 27 26 25 24 23 23 22 20 19 19 19 19 19 19 20 20 20 20 20 20 20 20 21 19 19 19 19 19 19 19 19
33 33 31 32 29 29 31 29 27 26 29 32 31 30 30 29 29 28 27 26 25 24 23 22 22 21 19 19 19 19 19 19 19 19 19 20 20 20 20 19 19 19 20 19 19 19 19 19 19
32 32 32 32 32 30 29 28 23 19 21 31 32 31 30 29 29 28 27 26 26 25 24 22 22 21 19 19 19 19 19 19 19 19 20 19 19 20 20 20 19 19 19 19 19 20 20 19 19
34 33 33 31 31 32 32 30 31 25 24 32 32 31 30 29 29 28 27 26 25 25 24 23 22 21 20 20 20 20 19 19 19 20 20 20 20 20 20 20 20 19 19 19 19 19 20 19 19

GFSSGP_850_temp_201.txt.gz
Temp
23 22 22 20 21 20 20 20 19 21 27 26 26 26 25 24 23 20 21 20 20 20 19 19 19 19 19 19 19 19 19 19 19 19 19 19 19 19 18 18 18 18 18 18 18 18 18 18 19
24 23 21 23 22 20 20 18 18 22 27 26 25 26 25 23 23 21 20 21 22 20 20 19 19 19 19 19 19 19 19 19 19 19 19 19 19 19 18 18 18 17 18 17 17 17 17 18 18
24 24 23 21 22 22 20 19 20 22 23 27 26 26 25 23 22 20 19 21 21 21 20 20 20 20 19 19 18 19 19 19 19 19 19 19 19 19 18 18 18 17 17 17 18 18 18 18 18
24 24 24 22 24 24 21 18 18 21 26 27 26 25 23 24 22 20 20 20 20 20 20 20 20 20 19 19 19 19 19 19 19 19 18 18 18 19 18 18 18 18 17 17 18 18 18 18 18
24 23 21 23 25 25 23 21 20 24 26 26 25 24 23 23 22 21 20 20 19 19 20 20 20 20 19 19 19 19 19 19 19 19 18 18 19 19 17 18 18 18 18 18 18 18 18 18 18
24 24 22 23 24 27 27 26 26 25 25 26 25 24 23 22 22 21 21 20 20 20 20 20 20 20 19 19 19 19 19 19 19 19 19 19 19 19 19 18 18 17 18 18 18 18 18 18 18
25 24 23 23 24 26 26 28 26 24 24 23 23 23 23 22 22 21 21 21 20 20 20 20 20 20 19 19 19 19 19 19 19 19 19 19 19 19 19 18 18 18 18 18 18 18 18 18 18
29 22 22 19 20 25 27 28 26 25 23 24 24 24 22 23 22 22 22 21 19 20 20 20 21 20 19 19 19 20 19 19 19 19 19 19 19 19 19 19 18 18 19 18 18 18 18 18 18
30 22 20 20 21 25 27 27 25 24 25 23 23 25 23 23 23 22 21 21 20 19 20 20 20 20 20 19 19 19 19 18 19 19 19 19 18 18 19 19 19 18 19 19 18 18 17 18 18
27 24 23 22 22 26 27 26 24 24 22 22 22 24 23 23 23 21 21 21 20 19 19 20 19 19 19 19 19 19 19 18 19 19 18 19 19 18 18 18 19 19 19 19 19 17 17 18 18
29 25 28 25 27 27 27 26 25 21 20 20 22 22 23 23 23 23 21 21 21 20 19 18 19 18 18 19 19 19 18 18 19 19 19 19 19 18 18 19 19 19 18 19 19 17 17 17 18
28 29 29 28 26 27 26 26 25 24 24 23 23 24 24 23 23 22 22 21 21 21 20 19 19 18 18 18 19 18 18 19 19 19 19 19 19 18 19 19 19 19 19 19 18 18 18 19 18
29 30 30 28 27 27 26 25 25 24 23 24 24 24 24 25 23 23 22 22 22 21 20 19 19 19 19 19 19 18 18 18 19 19 19 19 19 19 19 19 19 19 19 19 19 19 19 19 19
30 30 30 29 27 28 27 26 26 25 24 25 24 24 24 25 24 24 23 22 21 21 20 19 20 19 20 19 19 19 18 18 19 19 19 19 19 19 19 19 19 19 18 18 19 19 19 18 18
30 29 29 27 28 28 27 24 25 25 25 24 25 24 25 24 23 23 23 22 21 20 20 20 19 19 19 19 19 19 18 18 18 19 19 19 19 19 20 20 19 20 19 18 19 19 19 19 18
29 29 26 27 27 28 26 23 23 25 23 24 25 27 25 24 24 23 22 22 21 20 20 20 20 19 19 19 19 18 19 19 18 19 19 20 20 19 20 20 20 20 19 19 19 19 19 19 19
26 25 26 27 27 28 25 24 22 24 24 23 27 26 25 24 23 23 22 21 21 21 20 20 19 19 19 19 19 18 19 19 19 19 20 20 20 20 20 20 20 20 20 20 19 19 19 19 19
27 28 27 27 27 28 26 24 22 22 22 25 26 27 25 24 24 24 23 22 21 21 20 20 19 19 19 19 19 18 19 20 19 20 20 20 19 19 19 20 20 19 20 20 20 20 19 20 19
30 28 27 28 29 28 25 24 21 22 22 24 26 26 26 24 24 24 23 22 21 20 20 20 19 19 18 19 18 18 19 19 20 20 20 20 20 20 19 19 19 19 19 19 19 19 19 20 19
29 27 27 27 29 27 25 22 24 22 20 19 20 26 26 26 25 23 22 22 22 21 20 20 20 20 19 19 19 20 20 20 20 20 19 20 20 20 19 19 19 19 19 19 19 19 19 20 20
28 27 28 28 28 26 25 21 22 19 20 21 23 24 26 26 25 24 23 23 22 22 21 20 20 20 19 19 19 19 19 19 19 19 20 20 20 20 19 20 19 20 19 20 20 20 19 19 20
25 31 31 30 26 22 22 20 22 20 19 19 22 23 26 27 26 25 24 23 23 22 21 21 20 20 20 19 19 19 18 19 20 20 20 20 20 20 20 19 19 19 20 19 19 19 19 19 20
28 31 29 27 24 23 23 22 24 22 21 20 21 22 26 26 26 25 25 24 24 23 21 21 21 21 20 19 18 19 19 19 20 20 20 20 19 20 19 19 19 19 19 19 19 19 19 19 19
31 31 27 21 19 19 22 22 22 20 21 21 25 25 25 26 26 26 25 25 24 23 22 21 21 21 20 19 19 18 19 19 19 19 20 20 20 20 20 20 19 19 19 19 19 19 19 19 19
30 27 22 22 19 19 22 22 24 24 24 23 24 25 26 26 27 26 25 24 23 23 22 22 21 21 20 20 19 19 19 19 19 19 19 19 20 21 20 20 20 19 19 19 19 19 19 19 19
28 26 23 22 20 20 21 21 24 27 26 25 25 28 28 27 27 27 26 25 24 23 23 22 22 21 20 20 19 19 19 19 19 19 19 20 20 20 20 20 19 19 19 19 19 19 19 19 19
27 25 27 26 27 25 24 26 23 23 20 27 30 30 29 28 27 26 26 25 24 24 23 23 22 21 21 20 19 19 19 19 19 19 19 19 19 20 20 20 21 20 20 20 19 18 19 19 19
27 28 25 23 25 25 24 23 19 23 25 27 28 29 28 28 27 26 25 25 25 24 23 23 23 22 21 20 19 19 19 19 19 19 19 19 20 20 19 20 20 20 20 19 19 19 19 19 19
27 26 27 25 24 23 23 24 24 23 25 26 26 29 29 29 27 26 26 25 25 24 24 23 23 22 21 20 19 19 19 19 20 19 19 20 20 20 19 19 20 20 20 20 19 19 20 19 20
29 28 27 24 23 24 24 25 27 24 24 23 23 29 29 29 28 26 26 25 25 24 24 23 23 22 21 20 20 19 19 19 20 20 20 20 20 20 20 20 20 20 20 20 20 20 20 20 20

GFSSGP_850_temp_207.txt.gz
Temp
22 21 21 21 20 18 19 20 21 20 21 22 24 24 23 21 22 20 20 20 20 19 19 19 19 19 19 19 18 18 19 18 18 18 18 18 18 18 18 18 18 18 19 18 18 18 18 18 18
22 21 21 21 19 19 20 20 20 21 20 21 23 24 22 20 20 19 18 20 20 20 19 19 19 19 19 19 18 19 19 18 18 18 18 18 18 18 18 18 18 18 18 18 18 18 17 17 17
22 21 21 19 19 19 20 20 21 22 21 22 22 23 21 19 19 19 19 20 20 20 19 18 18 19 19 18 19 18 19 19 19 19 19 18 18 18 18 18 18 18 18 18 18 18 17 17 17
23 22 21 20 22 22 21 20 20 21 23 23 23 22 21 21 20 20 20 19 20 20 19 19 19 18 19 18 18 18 19 19 18 19 18 18 18 18 18 18 18 18 18 18 18 18 18 17 17
23 23 20 21 22 22 21 21 20 22 23 24 23 21 20 20 21 21 20 19 20 20 19 19 18 18 18 18 18 18 18 18 18 18 18 18 18 18 18 17 18 18 18 18 18 18 17 18 18
23 21 20 21 21 22 21 21 21 22 23 23 21 21 20 20 21 20 20 20 20 20 20 19 19 19 18 18 19 19 18 19 18 18 17 18 18 18 17 17 18 18 18 19 18 18 17 18 18
22 20 21 21 21 22 22 22 21 23 23 23 22 19 18 19 20 20 21 20 20 20 20 20 19 19 19 19 19 19 19 19 19 18 18 18 18 18 18 18 18 18 18 18 18 18 17 18 18
23 20 21 21 21 22 23 22 22 22 23 23 22 19 18 19 20 20 20 20 20 20 19 19 19 19 19 19 19 19 19 19 19 18 18 18 18 18 18 17 18 18 18 18 18 17 17 17 18
24 20 20 22 21 23 23 24 22 23 23 23 22 23 22 20 19 19 19 19 19 19 19 19 19 19 18 19 19 19 19 19 18 18 18 18 18 18 17 17 18 18 18 17 17 17 17 17 18
24 20 22 22 22 22 25 24 22 22 22 22 22 22 21 19 19 19 19 19 19 19 19 19 19 19 19 19 19 19 18 18 18 18 17 18 18 18 17 17 18 18 16 16 16 17 17 17 17
24 22 23 24 25 25 24 23 23 22 22 22 21 21 20 20 20 20 20 20 20 20 20 19 19 19 19 19 19 19 18 18 18 18 18 17 17 18 18 18 17 17 17 17 17 17 16 17 17
26 26 26 25 25 25 23 24 22 23 24 23 23 22 21 20 20 20 20 20 20 20 20 19 19 19 19 18 19 18 18 19 18 18 18 18 18 18 18 18 18 17 17 17 17 17 17 17 17
26 27 27 26 26 26 25 24 23 22 24 22 21 21 21 20 21 20 21 21 20 20 20 20 19 19 19 19 19 19 18 19 18 18 18 18 18 18 18 19 19 18 18 18 18 18 17 17 18
27 27 28 26 26 25 24 24 24 23 23 21 21 21 20 21 21 20 20 21 21 21 20 20 20 20 19 19 19 19 18 18 18 18 18 18 18 19 19 19 19 19 19 18 18 18 18 17 18
27 26 26 25 25 25 24 23 22 23 22 22 22 21 21 21 21 21 22 21 21 21 21 20 20 20 19 19 19 19 18 18 18 18 18 18 18 19 18 19 19 19 19 19 18 18 18 18 17
24 24 23 25 25 26 25 22 23 23 22 22 22 22 22 22 21 22 22 22 21 21 21 20 20 20 19 19 18 19 18 18 18 18 18 19 18 18 18 19 20 19 19 19 18 18 18 18 18
21 23 23 24 25 24 24 23 20 21 21 21 22 22 23 23 23 22 22 22 22 21 21 20 20 20 20 19 18 19 19 19 19 19 19 19 19 18 18 19 19 19 19 19 19 19 19 18 18
23 22 23 23 25 24 23 22 19 21 23 23 22 23 23 24 25 24 23 22 22 21 21 20 20 20 19 18 18 18 18 19 19 19 19 19 19 19 18 19 19 19 19 19 20 19 19 19 18
23 22 22 24 25 23 22 22 19 21 22 22 23 24 23 24 25 24 23 22 22 21 21 20 20 19 19 19 19 19 18 18 19 19 19 19 19 19 18 19 19 19 19 19 19 19 19 19 19
22 22 22 24 26 24 21 22 20 19 21 21 21 22 23 23 23 23 22 22 22 22 22 21 20 19 19 19 19 19 19 18 19 19 19 19 19 19 19 19 19 19 19 19 19 19 19 19 19
22 22 24 25 25 23 22 20 20 20 21 21 21 21 22 23 23 23 23 23 22 22 22 21 20 20 19 19 19 18 18 18 19 19 19 20 19 19 19 19 19 19 19 19 19 19 19 19 19
22 25 26 27 23 22 22 19 19 19 19 19 20 21 22 22 22 23 23 23 23 23 22 21 21 20 19 19 18 19 19 18 19 19 19 19 20 19 19 19 19 19 19 19 19 19 19 19 19
23 25 25 24 22 22 22 20 19 18 19 19 21 20 23 23 23 24 23 23 23 23 22 21 21 20 19 19 19 19 19 19 19 19 19 19 19 19 19 19 19 19 19 18 18 18 19 19 19
24 23 20 18 18 21 22 20 20 20 21 21 21 21 22 22 23 23 23 23 23 23 22 21 21 20 20 19 19 19 19 19 19 19 19 19 19 19 19 19 19 18 19 19 19 18 18 18 19
22 20 20 21 18 20 18 21 21 22 22 22 22 23 22 22 23 24 23 21 21 20 21 22 21 20 20 19 19 19 19 19 19 19 19 19 19 19 19 20 19 19 19 19 19 19 18 18 19
23 21 19 22 20 22 18 20 23 23 23 24 25 25 25 24 24 25 23 22 23 23 21 22 21 21 21 20 19 19 19 19 19 19 19 19 19 19 19 19 19 19 19 19 19 19 18 19 19
24 23 21 20 18 19 20 21 22 22 22 23 24 24 25 26 26 25 23 22 23 23 23 22 22 21 21 20 19 19 19 19 19 19 19 19 19 19 19 19 19 19 20 19 19 19 19 19 19
25 22 22 18 23 24 21 21 19 19 19 22 21 22 24 25 25 24 24 23 23 23 23 22 22 22 22 21 20 19 19 19 19 19 19 19 19 19 19 19 19 20 20 20 19 19 19 19 19
23 22 19 19 18 20 20 20 20 17 18 23 21 23 25 23 24 25 24 24 24 24 23 23 22 22 22 21 20 19 19 19 19 19 19 19 19 19 19 19 19 20 19 19 19 19 19 19 19
24 24 19 19 22 17 17 19 21 18 20 21 22 23 23 24 24 25 24 24 24 25 24 24 23 23 22 21 21 20 19 19 18 19 19 19 19 19 19 19 19 19 19 19 19 19 19 19 19

GFSSGP_850_temp_210.txt.gz
Temp
22 22 22 21 20 18 20 21 21 21 20 21 22 23 22 20 21 20 19 20 20 20 19 19 19 19 19 18 18 18 18 18 19 18 18 18 19 19 18 18 19 19 18 19 18 18 18 18 18
22 22 22 21 19 19 20 21 21 21 21 21 22 23 22 19 19 19 18 20 20 20 20 19 19 18 18 18 18 18 18 18 18 18 18 18 18 18 18 18 18 18 18 18 18 18 18 18 18
22 22 22 18 18 19 20 20 21 22 21 21 22 22 21 19 18 19 19 19 19 20 20 19 19 18 18 18 18 18 18 18 18 18 18 18 18 18 18 18 18 18 18 17 17 17 17 17 18
22 22 22 19 21 21 21 21 21 21 23 23 22 21 20 19 19 19 19 19 19 20 19 19 19 19 18 18 19 19 18 18 18 18 18 18 18 18 18 18 18 17 18 17 17 17 17 17 18
22 22 19 20 21 22 21 21 21 22 22 24 23 20 19 19 20 20 20 19 20 19 19 19 19 19 19 18 19 19 19 18 18 18 18 18 18 18 18 18 18 18 18 17 17 17 17 17 17
23 21 19 20 21 22 21 22 21 22 23 22 22 20 19 19 21 20 20 19 19 20 19 19 18 19 19 18 18 18 18 18 18 18 18 17 17 18 18 18 18 18 18 18 17 17 17 17 18
21 19 20 21 22 22 21 22 21 23 23 22 22 18 17 18 20 20 20 19 19 19 19 19 18 18 18 19 19 19 19 18 18 18 18 18 17 18 18 18 18 18 18 17 17 17 17 17 18
24 19 21 20 21 23 23 22 22 22 23 22 22 19 17 18 19 20 19 19 19 19 20 19 19 18 18 19 19 19 19 18 18 18 18 18 17 18 18 18 18 17 17 17 17 17 17 17 17
23 19 19 22 21 24 22 22 22 23 23 22 22 22 22 20 19 19 19 19 19 19 19 19 19 19 19 19 19 19 19 19 18 18 18 18 18 18 18 18 17 17 16 17 17 17 17 17 17
22 19 22 22 22 22 22 22 22 22 22 22 21 21 21 20 19 19 19 19 19 19 19 19 19 20 19 19 19 19 19 18 18 18 18 18 18 18 18 18 17 17 17 17 17 17 17 17 17
23 21 23 24 24 24 23 23 23 22 21 22 21 21 20 20 19 19 20 20 20 19 19 20 19 19 19 19 19 18 18 18 18 18 18 18 18 18 18 17 17 17 17 17 17 17 17 17 17
24 25 24 25 25 24 23 23 22 22 23 23 23 23 22 20 20 19 20 20 20 20 20 19 19 19 19 19 19 18 18 18 18 18 18 18 18 18 18 17 17 17 17 18 17 17 17 17 17
24 26 27 26 25 24 24 23 23 22 23 23 22 21 22 22 21 20 20 20 20 20 20 19 19 19 19 19 18 18 18 18 18 18 17 18 18 18 18 18 18 18 18 18 18 17 18 17 17
26 26 26 26 25 25 23 23 23 23 23 21 21 21 22 22 21 20 20 20 20 20 20 19 19 19 19 19 19 18 18 18 18 18 18 18 18 19 18 19 19 18 18 18 18 17 18 18 17
26 24 24 24 24 24 24 22 22 23 22 21 21 21 21 21 21 21 21 21 20 20 20 20 19 19 19 19 19 18 18 18 18 18 18 18 18 18 18 18 18 18 18 18 18 18 18 18 18
24 22 22 24 24 24 24 21 22 22 21 20 20 21 21 21 21 22 21 21 20 20 20 20 20 19 19 19 19 18 18 18 18 18 18 18 18 18 18 18 19 19 19 19 18 18 18 18 18
20 22 22 23 24 23 23 21 21 22 21 21 21 20 21 21 21 21 21 21 21 21 21 20 20 19 19 19 18 18 18 18 18 18 18 19 19 18 18 18 19 19 19 19 18 18 18 18 18
22 21 22 21 23 22 22 21 19 20 20 21 21 21 21 21 22 22 22 22 22 21 21 20 20 20 19 19 18 18 18 18 18 18 19 19 19 18 18 18 18 19 19 19 19 19 19 18 18
22 21 21 23 24 23 21 22 19 19 19 19 21 22 22 22 22 23 23 23 22 21 21 20 20 20 19 18 18 18 18 18 18 18 19 19 19 19 18 18 18 19 19 19 19 19 19 19 19
21 21 21 22 23 23 22 21 20 19 19 20 20 21 22 22 23 24 23 23 23 22 22 21 20 19 19 19 19 18 18 18 19 19 19 19 19 19 18 18 18 18 18 19 19 19 19 19 19
20 20 21 23 24 23 22 20 20 20 19 20 21 22 22 22 23 23 23 23 23 23 22 21 20 20 19 19 19 18 18 18 18 19 19 19 19 19 19 18 18 18 18 19 19 19 19 19 19
21 22 23 23 23 21 21 19 19 19 19 19 20 20 22 22 23 23 23 23 23 23 22 21 21 20 19 19 18 18 18 18 18 19 19 19 19 19 19 18 18 18 18 18 18 18 18 18 19
23 23 23 22 21 21 21 19 19 19 21 19 19 21 22 22 23 23 24 24 23 23 22 21 21 20 19 19 18 18 18 18 18 19 19 19 19 19 19 19 19 18 18 18 18 18 18 18 18
24 23 20 17 17 20 20 21 20 21 22 21 21 21 22 23 23 23 22 23 22 22 21 20 21 21 20 19 19 18 18 18 18 18 19 19 19 19 19 19 19 18 19 19 18 18 18 18 18
21 19 19 21 18 20 17 19 19 21 21 21 21 23 22 22 23 22 22 22 23 23 22 21 21 21 20 19 19 18 18 18 18 18 19 19 19 19 19 19 19 19 19 19 19 18 18 18 19
20 20 18 22 19 19 18 21 22 22 22 23 23 24 24 23 24 24 23 23 23 23 22 22 21 21 21 20 19 19 18 18 19 19 19 19 19 19 19 19 19 19 19 19 19 18 18 18 18
22 21 21 17 16 18 19 20 21 20 20 20 22 23 23 23 24 23 23 23 23 23 23 23 22 21 21 20 20 19 18 18 19 19 19 19 19 19 19 19 19 19 19 19 19 18 19 18 18
23 21 21 17 23 22 20 20 19 20 19 19 20 21 23 23 23 23 22 23 22 23 23 22 22 22 22 21 20 20 19 18 19 18 19 19 19 19 19 19 19 19 19 19 19 19 19 19 18
22 21 17 17 17 19 19 20 18 19 18 18 20 23 24 24 24 23 22 22 22 22 23 24 23 22 22 21 21 20 19 18 18 18 18 19 19 19 19 19 19 19 20 20 19 19 19 19 19
23 22 19 19 21 15 16 19 21 19 18 20 22 25 26 25 26 24 22 22 22 22 22 24 23 22 22 21 21 20 20 19 19 18 18 18 19 19 19 19 19 19 19 19 19 19 19 19 19